User: anonymous   Login
Location: Dompnac
(44.5644°N, 4.1026°E)
Time: 23:53:37
(UTC+00:00)
Language:

Cosmos 1891 Rocket - Orbit

View from above orbital plane
View from above orbital plane
View from above satellite
View from above satellite

Ground track
Ground track

The orbit data is extracted from the following two-line orbital elements,

1 18403U 87087B   21136.41187264 -.00000030  00000-0 -46375-4 0  9996
2 18403  82.9162 107.2952 0058267 145.5797 214.9156 13.76544696686670
Epoch (UTC): 16 May 2021 09:53:05
Eccentricity: 0.0058267
inclination: 82.9162°
perigee height: 933 km
apogee height: 1019 km
right ascension of ascending node: 107.2952°
argument of perigee: 145.5797°
revolutions per day: 13.76544696
mean anomaly at epoch: 214.9156°
orbit number at epoch: 68667

The dashed part of the orbit path shows where the satellite is in the earth's shadow,  

DLR